Date,TemperatureHighF,TemperatureAvgF,TemperatureLowF,DewpointHighF,DewpointAvgF,DewpointLowF,HumidityHigh,HumidityAvg,HumidityLow,PressureMaxIn,PressureMinIn,WindSpeedMaxMPH,WindSpeedAvgMPH,GustSpeedMaxMPH,PrecipitationSumIn
2012-12-10,61.5,58.6,60.3,56.7,51.0,-99.9,86,82,84,29.71,29.65,4,-31,0,0.21
2012-12-11,60.4,50.8,42.8,55.5,38.7,31.1,84,64,44,30.13,29.71,3,0,0,0.00
2012-12-12,51.3,45.1,42.3,37.8,31.9,28.0,73,60,48,30.23,30.12,4,1,0,0.01
2012-12-13,55.2,44.0,29.3,28.8,23.7,16.9,74,47,22,30.30,30.18,3,1,0,0.00
2012-12-14,58.6,37.0,24.4,28.1,23.7,18.4,80,62,24,30.25,30.06,3,0,0,0.00
2012-12-15,61.0,46.0,33.1,35.9,30.8,26.2,78,58,29,30.08,29.88,4,0,0,0.00
2012-12-16,58.6,52.1,47.1,49.7,43.6,35.4,86,73,60,29.88,29.73,3,0,0,0.62
2012-12-17,56.8,54.5,51.6,52.7,50.4,47.6,87,86,84,29.72,29.51,2,0,0,0.19
2012-12-18,61.3,50.3,33.1,50.5,36.2,17.5,85,63,18,29.83,29.53,5,1,0,0.00
2012-12-19,68.7,46.6,31.8,39.6,32.2,25.7,83,62,25,29.97,29.82,3,0,0,0.00
2012-12-20,51.6,44.6,36.7,45.5,38.8,30.1,86,80,64,29.97,29.49,6,1,0,1.39
2012-12-21,48.0,40.5,31.8,30.3,20.9,13.9,65,47,30,29.87,29.56,6,2,0,0.00
2012-12-22,58.3,39.7,23.5,19.3,6.6,-31.9,71,34,2,30.04,29.86,5,1,0,0.00
2012-12-23,57.4,39.8,23.9,29.8,20.7,12.6,77,51,18,30.08,29.93,3,0,0,0.00
2012-12-24,48.7,45.4,42.3,43.1,36.7,28.6,86,73,48,29.95,29.78,2,0,0,0.78
2012-12-25,53.2,47.9,45.9,45.6,42.8,40.5,86,83,72,30.01,29.84,3,0,0,0.05
2012-12-26,48.9,45.2,37.4,44.7,39.2,27.0,87,80,64,29.84,29.40,6,2,0,2.95
2012-12-27,50.9,40.8,34.0,27.0,25.6,24.2,70,56,35,30.01,29.69,6,2,0,0.00
2012-12-28,45.5,36.4,28.0,32.9,26.7,22.8,83,69,48,30.11,29.89,2,0,0,0.00
2012-12-29,55.0,41.9,35.1,39.8,31.4,18.2,84,68,45,30.02,29.68,4,1,0,0.31
2012-12-30,50.7,36.1,26.8,22.2,17.4,8.8,77,49,19,30.33,30.02,4,1,0,0.00
2012-12-31,54.5,40.6,24.4,26.4,21.7,16.1,81,51,22,30.31,30.04,4,1,0,0.00
2013-1-1,50.5,49.3,46.9,46.1,38.9,24.1,86,70,39,30.03,29.84,3,1,0,0.55